Location: Bun Machan
(52.1403°N, 7.3744°W)
Time: 19:06:54
(UTC+00:00)

CSL-04 DEB - Pass Details

Date: 14 July 2020
Orbit: 545 x 629 km, 98.7° (Epoch: 12 August)

Event Time Altitude Azimuth Distance (km) Brightness Sun altitude
Rises 03:26:57 0° 162° (SSE) 2,813 7.6 -7.3°
Reaches altitude 10° 03:29:07 10° 162° (SSE) 1,903 6.8 -7.1°
Maximum altitude 03:33:15 88° 78° (ENE) 582 4.5 -6.7°
Drops below altitude 10° 03:37:18 10° 345° (NNW) 1,871 7.5 -6.3°
Sets 03:39:25 0° 345° (NNW) 2,761 8.4 -6.1°
